Total_Precipitation_Accumulation
1.64 1.66 1.54 1.49 1.34 1.47 1.75 1.96 1.91 2.07 2.23 2.12 1.84 1.69 1.56 1.42 1.37 1.37 1.55 1.75 1.65 1.72 2.00 2.08 2.02 1.89 1.82 1.64 1.46 1.36 1.30 1.21 1.01 0.75 0.60 0.57 0.51 0.39 0.32 0.31 0.31 0.30 0.25
1.86 1.88 1.73 1.63 1.36 1.40 1.64 1.89 1.91 2.09 2.10 2.14 1.78 1.64 1.52 1.53 1.44 1.41 1.52 1.70 1.69 1.56 1.68 1.99 2.19 2.24 2.15 2.00 1.77 1.52 1.40 1.31 1.11 0.85 0.66 0.62 0.57 0.50 0.47 0.46 0.40 0.31 0.22
2.12 2.10 1.92 1.64 1.48 1.64 1.74 1.75 1.81 2.19 2.04 1.91 1.73 1.79 1.75 1.68 1.51 1.46 1.49 1.62 1.47 1.42 1.43 1.59 1.89 2.15 2.39 2.40 2.16 1.92 1.65 1.41 1.17 0.90 0.72 0.60 0.54 0.50 0.51 0.50 0.50 0.40 0.26
2.07 2.20 1.89 1.56 1.69 1.87 1.82 1.77 1.82 2.05 2.04 2.13 2.02 1.88 1.77 1.65 1.32 1.27 1.29 1.31 1.40 1.20 1.32 1.56 1.68 1.80 2.23 2.55 2.61 2.53 2.12 1.67 1.29 0.99 0.81 0.66 0.60 0.54 0.47 0.42 0.41 0.42 0.31
1.51 1.54 1.25 1.15 1.38 1.46 1.34 1.29 1.55 1.72 1.75 1.87 1.84 1.63 1.44 1.30 1.13 1.07 1.10 0.96 1.05 1.09 1.13 1.36 1.57 1.63 2.03 2.59 3.08 3.22 2.87 2.28 1.74 1.32 1.12 0.97 0.82 0.65 0.52 0.46 0.42 0.41 0.33
1.08 1.09 0.88 0.84 1.09 1.18 1.15 1.25 1.32 1.35 1.29 1.37 1.24 1.03 0.99 0.87 0.89 0.88 0.78 0.78 0.78 0.79 0.91 1.11 1.37 1.26 1.72 2.34 2.85 3.11 3.12 2.77 2.21 1.81 1.62 1.42 1.23 0.94 0.62 0.49 0.45 0.42 0.34
0.97 1.04 0.86 0.95 1.07 1.08 1.09 1.14 1.16 1.07 0.91 1.06 1.15 0.92 0.73 0.65 0.66 0.61 0.59 0.60 0.55 0.63 0.85 1.05 1.22 1.29 1.24 1.39 1.83 2.25 2.77 3.03 2.68 2.23 2.01 1.81 1.64 1.30 0.91 0.71 0.56 0.45 0.38
0.83 0.88 0.84 0.71 0.76 0.80 0.73 0.76 0.94 0.96 0.82 0.93 1.05 0.97 0.75 0.70 0.61 0.43 0.47 0.51 0.49 0.60 0.76 0.87 1.11 1.29 1.27 1.44 1.18 1.40 2.07 2.62 2.92 2.81 2.46 2.05 1.73 1.43 1.16 0.98 0.76 0.58 0.50
0.59 0.62 0.62 0.61 0.67 0.71 0.71 0.71 0.75 0.80 0.73 0.70 0.83 0.98 0.82 0.62 0.54 0.47 0.44 0.42 0.50 0.64 0.74 0.89 0.96 1.05 1.18 1.40 1.39 1.28 1.56 1.76 2.45 2.98 2.84 2.28 1.68 1.31 1.19 1.21 1.09 0.82 0.68
0.48 0.46 0.46 0.46 0.52 0.60 0.69 0.61 0.61 0.65 0.65 0.56 0.61 0.69 0.70 0.67 0.62 0.51 0.46 0.46 0.51 0.63 0.78 0.87 0.97 1.01 1.06 1.19 1.38 1.31 1.18 1.23 1.65 2.27 2.60 2.47 1.99 1.49 1.25 1.35 1.61 1.49 1.09
0.46 0.42 0.42 0.42 0.42 0.43 0.47 0.51 0.58 0.59 0.60 0.55 0.54 0.59 0.66 0.69 0.69 0.61 0.54 0.51 0.47 0.43 0.58 0.77 0.91 0.97 0.95 1.08 1.34 1.35 1.27 1.17 1.10 1.24 1.67 2.01 2.04 1.77 1.50 1.57 2.02 2.31 2.11
0.49 0.47 0.45 0.48 0.45 0.41 0.44 0.47 0.49 0.50 0.55 0.59 0.58 0.60 0.68 0.73 0.69 0.68 0.61 0.55 0.51 0.44 0.48 0.65 0.91 1.05 1.02 1.05 0.96 0.96 1.00 0.91 0.85 0.86 1.00 1.21 1.49 1.64 1.67 1.80 2.15 2.55 2.79
0.41 0.46 0.49 0.51 0.50 0.49 0.47 0.46 0.46 0.48 0.54 0.62 0.62 0.58 0.60 0.65 0.71 0.72 0.67 0.59 0.61 0.60 0.70 0.73 0.81 0.94 0.92 0.97 0.92 0.77 0.62 0.57 0.55 0.58 0.73 0.91 1.13 1.38 1.54 1.62 1.89 2.21 2.47
0.43 0.46 0.45 0.45 0.46 0.47 0.47 0.49 0.43 0.43 0.53 0.62 0.65 0.73 0.70 0.61 0.75 0.82 0.79 0.78 0.76 0.81 0.96 0.88 0.80 0.80 0.83 0.87 0.77 0.65 0.49 0.44 0.40 0.39 0.44 0.47 0.56 0.69 0.85 0.99 1.17 1.40 1.61
0.50 0.51 0.45 0.45 0.44 0.45 0.48 0.50 0.50 0.53 0.59 0.62 0.70 0.84 0.88 0.82 0.80 0.84 0.90 0.96 1.02 0.99 0.97 0.91 0.81 0.74 0.73 0.71 0.63 0.54 0.43 0.38 0.38 0.35 0.35 0.34 0.37 0.42 0.47 0.51 0.58 0.67 0.75
0.50 0.53 0.53 0.50 0.48 0.48 0.54 0.61 0.60 0.60 0.67 0.76 0.88 0.97 1.01 1.01 0.99 0.90 0.94 0.99 1.02 1.08 1.03 0.86 0.80 0.80 0.72 0.56 0.53 0.47 0.41 0.42 0.39 0.36 0.33 0.31 0.30 0.35 0.39 0.41 0.38 0.41 0.46
0.50 0.51 0.52 0.54 0.52 0.58 0.75 0.92 0.89 0.81 0.86 0.93 1.02 1.13 1.19 1.21 1.20 1.07 1.01 0.98 0.98 1.07 1.01 0.85 0.79 0.81 0.70 0.54 0.47 0.45 0.42 0.41 0.36 0.37 0.33 0.30 0.29 0.30 0.34 0.36 0.35 0.34 0.35
0.50 0.44 0.44 0.46 0.46 0.55 0.70 0.99 1.13 1.14 1.11 1.02 1.08 1.27 1.35 1.30 1.19 1.10 1.08 1.02 1.00 1.10 1.04 0.95 0.92 0.87 0.79 0.68 0.59 0.54 0.45 0.41 0.39 0.42 0.37 0.33 0.31 0.29 0.29 0.28 0.29 0.28 0.30
0.55 0.51 0.50 0.51 0.56 0.57 0.60 0.78 0.99 1.09 1.10 1.06 1.11 1.16 1.19 1.24 1.20 1.12 1.05 1.01 0.99 1.09 1.10 1.01 1.06 1.05 0.94 0.82 0.71 0.60 0.52 0.50 0.41 0.40 0.41 0.37 0.35 0.30 0.27 0.27 0.27 0.26 0.26
0.61 0.61 0.61 0.62 0.62 0.59 0.58 0.70 0.84 0.92 0.96 1.00 1.05 1.08 1.09 1.09 1.15 1.20 1.12 1.07 1.08 1.10 1.11 1.10 1.12 1.25 1.15 0.98 0.82 0.69 0.59 0.55 0.48 0.36 0.37 0.41 0.38 0.33 0.29 0.27 0.26 0.25 0.26
0.64 0.69 0.75 0.73 0.69 0.62 0.58 0.70 0.78 0.73 0.80 0.86 0.86 0.83 0.91 1.08 1.16 1.20 1.11 1.08 1.15 1.14 1.13 1.17 1.18 1.30 1.32 1.17 0.93 0.72 0.63 0.61 0.57 0.50 0.44 0.36 0.34 0.31 0.28 0.29 0.29 0.27 0.24
0.73 0.80 0.84 0.84 0.77 0.60 0.62 0.68 0.69 0.67 0.71 0.77 0.79 0.75 0.74 0.84 0.97 1.04 1.01 0.99 1.04 1.09 1.13 1.16 1.21 1.29 1.35 1.26 1.09 0.92 0.78 0.66 0.62 0.60 0.62 0.54 0.41 0.37 0.30 0.26 0.28 0.29 0.28
0.89 0.91 0.89 0.88 0.85 0.81 0.74 0.64 0.59 0.58 0.63 0.69 0.69 0.66 0.56 0.54 0.70 0.80 0.89 0.91 0.89 0.88 0.95 1.10 1.20 1.22 1.35 1.40 1.33 1.11 1.01 0.89 0.72 0.68 0.72 0.69 0.59 0.49 0.38 0.34 0.38 0.32 0.31
1.11 1.09 1.03 1.03 1.09 1.02 0.91 0.77 0.68 0.59 0.58 0.58 0.60 0.61 0.62 0.61 0.62 0.69 0.79 0.85 0.87 0.83 0.81 0.86 0.99 1.18 1.35 1.51 1.49 1.36 1.26 1.11 0.90 0.79 0.77 0.74 0.66 0.58 0.48 0.42 0.44 0.39 0.35
1.39 1.39 1.32 1.32 1.34 1.38 1.30 1.07 0.93 0.78 0.73 0.71 0.75 0.76 0.73 0.68 0.66 0.61 0.65 0.70 0.74 0.81 0.78 0.78 0.84 1.05 1.24 1.38 1.53 1.46 1.33 1.15 0.95 0.81 0.76 0.71 0.64 0.64 0.60 0.50 0.44 0.43 0.38
1.66 1.64 1.64 1.65 1.62 1.61 1.50 1.17 1.01 0.88 0.89 0.89 0.93 0.88 0.74 0.62 0.55 0.49 0.52 0.59 0.60 0.61 0.71 0.75 0.78 0.87 1.03 1.15 1.31 1.31 1.19 1.14 0.97 0.81 0.69 0.66 0.59 0.64 0.67 0.58 0.49 0.44 0.40